Wind_Speed
24 25 25 25 26 28 30 32 35 36 38 39 39 39 39 37 36 39 35 40 41 47 48 50 46 42 44 43 41 40 43 51 50 55 50 45 47 50 49 50 40 31 27 38 42
25 28 31 33 36 39 42 44 46 47 48 48 48 48 47 47 44 40 42 42 43 46 50 50 50 51 50 43 49 50 46 35 38 46 45 40 45 45 50 50 48 36 33 44 41
30 34 37 40 42 45 48 52 55 55 59 60 58 57 55 54 53 49 48 51 51 50 50 53 53 54 55 51 49 49 51 36 32 39 45 42 44 44 45 39 52 51 42 50 50
35 40 43 46 48 51 54 57 60 62 65 67 67 65 62 62 60 56 58 59 59 57 56 54 55 58 56 54 50 53 46 43 39 39 41 45 40 46 49 47 46 56 50 59 59
41 44 48 54 55 58 62 67 68 69 69 69 68 68 68 68 60 63 67 64 62 63 61 60 58 59 61 56 50 57 49 47 44 44 41 43 50 46 53 53 55 52 56 57 66
46 52 56 58 61 65 65 67 68 70 71 68 67 68 70 69 70 70 67 67 66 64 64 64 61 57 62 61 58 51 54 51 49 47 44 42 41 51 46 53 58 61 62 59 59
54 58 61 66 69 69 68 66 64 64 65 71 75 77 75 73 74 75 78 70 68 69 65 66 67 64 62 62 61 56 56 56 56 50 47 45 46 42 41 48 54 59 57 50 49
58 62 68 69 70 69 66 63 65 71 75 81 84 88 86 88 85 86 87 81 78 73 70 65 66 69 66 64 64 61 60 59 54 54 52 50 50 43 45 48 52 58 53 47 44
63 66 68 71 70 66 66 69 75 81 89 90 86 74 58 60 64 74 84 87 87 85 80 77 72 67 68 64 66 66 68 64 55 55 55 56 50 46 50 47 46 48 49 49 45
67 70 71 68 65 66 71 75 83 91 80 54 27 18 17 12 16 24 30 40 52 65 81 87 83 80 76 73 71 68 67 67 61 55 57 57 54 49 49 50 45 43 42 40 39
69 69 68 63 66 69 74 80 83 54 32 22 23 18 21 15 16 16 14 11 15 29 34 57 67 80 81 74 66 62 63 62 58 55 53 55 55 53 50 52 47 45 41 37 30
68 69 64 64 69 75 80 79 43 26 16 14 25 18 21 17 23 23 18 16 22 23 30 29 51 63 71 73 74 68 62 64 56 53 55 52 50 47 47 48 46 43 43 37 29
66 66 63 66 71 78 75 66 21 19 15 17 19 21 30 28 28 20 18 20 18 19 26 26 19 34 50 59 62 67 66 62 59 51 43 50 48 47 47 47 43 44 40 38 33
64 64 62 68 71 72 63 44 19 20 20 19 27 32 37 31 31 18 15 18 16 19 19 29 23 32 30 52 59 65 66 62 60 53 54 43 48 44 46 46 44 42 40 39 33
63 62 64 68 71 56 48 34 22 19 18 21 29 39 34 27 18 16 14 15 15 19 10 21 21 25 38 33 40 56 58 62 59 55 50 46 37 37 40 47 45 41 41 37 36
61 60 63 69 64 48 37 33 29 30 27 28 27 34 34 25 22 22 19 21 13 10 6 10 15 24 34 35 33 37 46 60 60 54 57 48 44 35 36 47 47 43 39 36 36
58 59 61 61 63 36 27 23 33 32 30 32 35 35 33 30 22 18 19 19 16 15 11 13 10 26 19 41 44 40 46 49 45 59 59 50 42 43 33 40 42 39 43 36 32
57 57 60 58 60 29 23 24 30 29 31 36 38 35 34 34 22 20 15 17 6 7 8 5 4 20 15 16 43 44 51 52 50 46 59 54 47 45 37 31 33 33 32 34 37
55 58 57 59 48 20 23 24 33 37 38 37 33 30 24 24 26 21 15 21 11 4 9 8 5 5 18 26 38 40 53 53 45 37 47 60 49 47 35 25 28 35 37 37 32
54 56 55 57 46 25 25 31 35 37 31 34 36 34 29 25 19 20 16 13 13 10 8 10 7 11 16 28 41 32 36 56 46 38 46 57 57 56 37 27 31 31 31 36 34
55 52 54 54 51 26 24 30 32 28 31 36 36 31 27 23 24 27 19 15 10 11 12 11 14 7 2 22 37 25 48 58 48 44 34 43 60 55 34 34 32 32 34 35 38
54 52 57 52 47 29 22 27 33 30 29 28 30 27 26 26 24 23 17 12 9 7 11 10 10 9 10 23 27 35 40 47 57 49 37 37 47 60 46 40 40 36 36 35 33
50 57 55 49 46 39 20 23 30 34 33 27 30 23 21 27 22 21 14 9 7 6 8 7 9 8 9 14 33 32 46 51 50 50 45 37 37 42 53 45 44 41 39 37 34
55 53 49 49 48 43 21 20 27 33 36 24 24 20 15 20 23 20 22 19 11 10 9 8 5 4 8 14 24 26 47 46 55 49 51 44 40 41 50 49 49 45 43 42 38
54 52 52 48 45 41 21 20 24 30 33 21 18 20 16 16 19 18 22 27 20 20 23 9 3 6 11 17 21 24 40 50 49 49 45 38 38 44 47 48 48 50 47 46 43
51 47 49 47 45 40 26 20 23 25 32 22 15 17 15 17 21 15 25 18 17 18 15 19 7 4 5 10 18 18 39 42 63 48 40 32 36 43 50 48 51 46 48 46 44
48 47 49 47 41 38 29 19 23 25 29 25 16 15 12 12 18 20 20 11 12 16 19 9 10 13 15 11 16 22 29 45 52 43 44 39 43 46 55 48 45 46 39 36 35
Wind_Direction
330 330 328 328 324 319 319 317 312 309 305 299 293 286 285 280 276 276 270 260 259 259 254 258 259 256 251 247 249 246 245 238 237 240 243 239 232 224 214 215 215 211 219 243 249
329 328 329 329 327 324 321 318 313 309 305 300 295 290 286 281 278 272 269 269 261 254 255 253 254 252 251 247 245 247 249 248 241 242 239 234 234 223 226 218 213 208 210 234 242
334 332 329 327 323 321 317 315 311 306 303 301 295 290 285 283 281 273 265 258 259 256 249 250 250 253 252 248 249 248 247 247 239 237 238 232 228 221 214 206 204 215 208 231 233
332 331 328 325 322 317 312 308 304 301 301 298 294 290 286 282 281 276 262 254 252 254 255 249 248 250 251 250 245 248 247 242 236 236 234 230 231 215 203 203 211 210 221 226 232
333 329 327 325 323 320 318 314 307 303 301 298 294 287 282 279 279 268 267 260 250 246 248 249 246 246 246 250 245 246 244 240 235 234 232 234 229 229 206 201 212 220 218 226 241
334 331 328 326 324 322 318 314 309 305 300 295 291 286 283 276 272 269 263 258 256 250 245 246 243 242 243 243 244 242 238 235 234 232 231 231 229 227 228 219 226 226 228 222 232
335 333 330 327 325 323 317 312 307 304 299 294 292 289 284 276 269 266 263 260 254 250 247 245 245 241 239 240 240 240 237 233 230 230 228 231 225 230 231 231 235 234 240 239 231
337 335 332 329 328 323 317 313 310 308 302 294 289 284 282 276 269 265 261 255 254 251 248 242 243 244 240 237 234 237 236 234 231 230 228 225 227 224 225 222 233 239 242 243 241
338 338 335 331 327 322 318 315 312 308 302 299 297 294 288 281 273 266 261 259 257 251 247 246 243 240 241 239 236 232 236 238 231 231 231 229 230 225 230 225 226 238 244 242 245
343 340 334 330 326 323 320 318 316 311 308 306 319 334 313 303 302 295 281 266 258 254 249 244 245 241 238 237 235 231 233 235 235 231 228 229 228 224 228 234 229 228 238 243 244
344 340 333 332 328 326 324 322 316 319 324 22 11 6 356 340 337 327 320 326 299 257 248 239 239 236 239 239 238 237 234 237 240 234 233 232 230 226 224 232 230 229 232 236 239
344 340 334 333 330 330 331 326 342 356 24 12 7 355 345 343 323 315 304 316 326 320 228 233 235 233 233 235 235 234 231 231 230 234 231 232 234 235 229 231 234 230 230 233 226
343 339 336 334 334 336 335 334 349 345 359 343 350 0 351 342 342 333 293 300 310 300 231 227 235 214 219 221 226 226 226 225 227 223 227 230 228 227 228 227 230 230 229 230 227
342 338 338 338 341 342 338 341 348 360 340 351 357 351 348 336 331 343 318 307 294 305 237 207 205 207 210 214 216 222 222 220 222 220 215 212 228 224 226 224 225 226 227 229 226
342 339 340 341 346 345 349 3 2 345 0 359 5 355 359 340 334 337 344 339 302 345 239 197 205 212 216 213 215 218 221 219 218 212 212 201 220 227 228 225 220 226 228 227 224
344 342 346 349 346 352 16 27 26 19 15 10 359 351 353 354 335 332 329 332 327 328 269 203 186 200 199 205 193 206 212 212 209 208 200 200 201 208 206 226 221 219 223 225 224
345 345 348 351 346 360 11 12 7 9 4 358 352 353 354 355 350 333 331 338 329 302 300 292 249 211 200 202 198 191 186 205 199 198 203 193 196 206 215 226 229 225 220 219 216
345 346 351 345 347 3 357 345 356 360 354 348 344 354 357 357 4 360 345 2 329 272 351 134 219 223 229 213 194 199 185 191 195 204 197 192 195 204 214 228 232 221 221 213 216
345 344 352 349 353 351 335 348 347 347 342 337 347 359 0 357 354 357 343 339 319 304 272 278 181 205 200 199 213 196 196 184 198 199 204 196 199 210 185 184 193 211 213 219 215
346 346 349 353 352 340 331 341 339 340 348 346 350 358 358 353 353 1 351 341 283 306 302 291 277 322 211 196 197 197 197 190 189 191 198 200 202 205 183 188 210 218 216 213 208
344 347 351 353 352 336 337 347 351 346 349 352 351 354 353 360 350 4 1 358 329 285 299 283 289 304 266 198 209 212 190 194 188 186 185 192 202 207 188 184 195 209 216 206 208
342 345 346 353 350 340 335 352 355 356 351 345 351 355 356 14 9 2 7 339 324 281 265 280 290 264 156 182 198 206 188 196 188 188 177 189 199 203 188 186 188 197 209 223 222
342 343 346 352 349 350 333 348 348 3 354 356 356 360 358 8 11 7 28 15 336 327 289 296 276 207 226 213 200 206 205 186 191 186 185 188 194 194 189 188 188 198 213 225 226
341 343 345 350 349 349 337 333 348 2 349 355 351 359 17 357 4 9 21 18 5 11 340 321 297 259 219 199 208 192 195 195 186 191 181 180 186 188 189 195 198 203 215 226 229
341 345 345 350 348 345 335 329 352 354 353 2 341 355 10 17 6 19 27 28 20 34 40 13 279 221 210 196 186 200 179 199 195 193 181 175 180 188 183 188 198 199 209 219 226
339 345 346 345 346 346 343 330 344 358 354 359 349 351 6 1 11 27 6 12 19 21 17 19 34 137 292 189 203 182 187 191 195 207 190 167 171 182 181 191 202 201 208 217 226
338 342 344 340 344 344 345 327 337 350 359 354 354 356 354 360 4 7 10 360 32 8 21 44 73 111 117 104 150 176 181 184 189 162 170 180 186 168 184 192 199 202 193 207 214
Height
5829 5827 5824 5821 5817 5814 5810 5806 5802 5797 5793 5790 5786 5783 5781 5780 5779 5778 5779 5777 5778 5772 5776 5777 5780 5782 5782 5785 5786 5787 5786 5793 5804 5808 5818 5826 5833 5841 5847 5852 5856 5856 5859 5851 5850
5825 5822 5818 5814 5810 5805 5800 5795 5791 5786 5782 5779 5774 5770 5767 5765 5765 5767 5766 5763 5762 5762 5762 5765 5767 5766 5768 5775 5773 5774 5779 5790 5800 5801 5805 5813 5819 5830 5834 5839 5847 5849 5850 5847 5843
5821 5816 5811 5806 5801 5795 5789 5783 5777 5771 5766 5761 5757 5754 5751 5748 5749 5750 5749 5747 5745 5745 5746 5748 5751 5752 5756 5761 5764 5767 5771 5786 5789 5790 5793 5801 5807 5813 5819 5827 5834 5842 5843 5839 5840
5815 5810 5804 5798 5793 5787 5779 5772 5764 5756 5749 5743 5737 5733 5731 5731 5732 5730 5726 5727 5729 5730 5732 5734 5736 5738 5743 5747 5754 5754 5764 5772 5779 5779 5784 5791 5798 5799 5807 5815 5821 5829 5835 5832 5832
5808 5802 5795 5788 5780 5772 5763 5754 5744 5736 5729 5722 5715 5710 5709 5709 5717 5699 5699 5703 5708 5711 5714 5716 5720 5723 5726 5735 5739 5742 5756 5757 5766 5769 5774 5779 5786 5790 5796 5803 5810 5817 5825 5830 5827
5800 5792 5785 5777 5768 5758 5747 5736 5726 5717 5708 5700 5692 5688 5686 5687 5677 5678 5678 5681 5683 5690 5695 5698 5704 5708 5709 5717 5721 5734 5736 5744 5751 5759 5765 5770 5778 5778 5792 5799 5801 5802 5810 5820 5826
5791 5783 5774 5763 5752 5742 5731 5719 5707 5697 5689 5678 5669 5662 5661 5662 5654 5652 5647 5658 5660 5665 5674 5679 5682 5686 5695 5701 5709 5715 5718 5727 5737 5749 5756 5760 5764 5774 5786 5789 5790 5791 5799 5811 5821
5781 5771 5760 5748 5738 5726 5713 5703 5691 5679 5665 5650 5638 5630 5632 5620 5622 5619 5617 5629 5633 5641 5648 5658 5661 5666 5674 5682 5689 5694 5701 5711 5733 5737 5745 5748 5757 5769 5772 5775 5781 5784 5791 5798 5809
5770 5758 5746 5735 5723 5711 5698 5686 5670 5651 5631 5614 5601 5593 5591 5587 5585 5582 5588 5599 5599 5611 5622 5630 5640 5652 5654 5663 5669 5676 5690 5702 5721 5725 5733 5736 5751 5759 5761 5766 5774 5778 5783 5792 5799
5758 5747 5734 5721 5707 5695 5682 5666 5649 5619 5601 5591 5581 5580 5578 5575 5573 5573 5570 5572 5575 5579 5592 5606 5614 5623 5631 5638 5650 5675 5683 5691 5702 5714 5716 5725 5737 5747 5753 5758 5767 5774 5777 5783 5792
5748 5735 5721 5708 5695 5680 5667 5648 5635 5609 5589 5586 5583 5579 5577 5575 5571 5570 5568 5566 5566 5565 5569 5580 5579 5592 5619 5633 5652 5662 5668 5677 5690 5703 5706 5717 5725 5734 5743 5747 5757 5765 5772 5779 5788
5738 5725 5711 5697 5682 5666 5648 5627 5603 5598 5594 5588 5583 5579 5577 5574 5571 5566 5565 5562 5559 5558 5557 5561 5562 5583 5605 5613 5628 5638 5651 5660 5677 5686 5697 5708 5714 5726 5733 5742 5749 5758 5766 5773 5782
5730 5716 5702 5688 5672 5654 5635 5615 5605 5601 5595 5592 5586 5582 5577 5573 5567 5565 5562 5560 5556 5551 5550 5552 5565 5573 5581 5592 5606 5618 5633 5651 5663 5677 5685 5696 5701 5710 5723 5733 5740 5749 5759 5767 5776
5720 5708 5695 5679 5665 5646 5630 5613 5606 5601 5598 5593 5586 5580 5576 5569 5564 5561 5559 5557 5551 5547 5544 5550 5557 5565 5572 5579 5593 5602 5623 5641 5652 5663 5671 5684 5688 5699 5712 5724 5731 5743 5752 5760 5768
5712 5699 5685 5672 5659 5641 5628 5612 5606 5603 5600 5596 5590 5581 5574 5569 5563 5560 5556 5552 5549 5544 5539 5544 5555 5557 5564 5574 5584 5597 5617 5631 5644 5651 5662 5670 5682 5691 5702 5709 5727 5737 5743 5753 5761
5706 5694 5679 5662 5651 5642 5627 5618 5613 5608 5603 5597 5591 5585 5579 5569 5564 5559 5555 5551 5548 5548 5547 5551 5552 5552 5560 5565 5574 5590 5604 5619 5630 5643 5644 5661 5671 5680 5691 5708 5720 5728 5736 5744 5753
5701 5688 5675 5663 5652 5638 5630 5625 5618 5608 5604 5599 5592 5586 5577 5569 5563 5557 5555 5551 5546 5548 5550 5550 5551 5552 5555 5561 5571 5579 5591 5607 5616 5624 5635 5657 5662 5673 5689 5699 5710 5721 5729 5737 5745
5697 5684 5671 5663 5650 5636 5630 5626 5617 5611 5604 5598 5590 5585 5574 5566 5564 5558 5556 5553 5550 5547 5549 5549 5550 5548 5555 5556 5567 5575 5585 5595 5604 5615 5634 5650 5650 5673 5686 5695 5702 5711 5720 5727 5738
5693 5680 5670 5656 5643 5637 5633 5624 5616 5609 5602 5595 5591 5584 5578 5571 5563 5559 5557 5553 5550 5548 5551 5547 5547 5552 5554 5559 5562 5572 5575 5591 5606 5618 5632 5641 5661 5668 5679 5688 5692 5701 5712 5723 5732
5691 5679 5667 5655 5643 5636 5631 5623 5614 5606 5601 5593 5585 5579 5573 5568 5565 5560 5556 5553 5551 5549 5549 5550 5551 5551 5553 5557 5560 5568 5582 5589 5596 5611 5621 5636 5652 5660 5672 5679 5687 5697 5709 5716 5724
5684 5675 5664 5651 5643 5634 5629 5621 5613 5606 5598 5590 5585 5580 5573 5567 5561 5558 5554 5552 5550 5550 5548 5549 5550 5552 5553 5555 5560 5564 5571 5581 5596 5606 5617 5632 5644 5661 5671 5676 5682 5691 5700 5708 5715
5679 5670 5662 5651 5643 5631 5627 5620 5613 5604 5599 5593 5586 5579 5572 5568 5563 5558 5553 5551 5549 5548 5548 5547 5548 5550 5552 5554 5557 5563 5569 5580 5584 5601 5615 5626 5639 5649 5662 5670 5678 5686 5693 5703 5713
5676 5664 5653 5646 5641 5631 5624 5618 5612 5603 5597 5591 5585 5579 5573 5569 5564 5558 5554 5551 5549 5547 5547 5547 5545 5548 5550 5551 5555 5558 5568 5577 5588 5599 5611 5623 5632 5642 5657 5666 5675 5682 5689 5698 5707
5671 5664 5655 5644 5634 5625 5621 5618 5611 5604 5597 5590 5586 5581 5575 5571 5565 5560 5555 5551 5548 5548 5546 5545 5544 5545 5548 5550 5551 5555 5564 5574 5584 5591 5607 5617 5626 5636 5650 5661 5670 5677 5685 5692 5701
5666 5655 5646 5643 5635 5624 5617 5615 5609 5603 5597 5589 5585 5580 5575 5573 5568 5561 5558 5554 5550 5549 5547 5546 5545 5545 5547 5550 5553 5554 5564 5573 5580 5588 5600 5613 5624 5631 5644 5656 5664 5674 5681 5687 5695
5661 5654 5646 5638 5629 5621 5614 5610 5607 5604 5593 5589 5584 5580 5575 5572 5569 5565 5560 5557 5554 5552 5550 5548 5546 5546 5545 5546 5550 5555 5566 5570 5577 5585 5595 5608 5619 5627 5640 5648 5657 5668 5676 5684 5691
5658 5649 5641 5634 5627 5617 5612 5607 5603 5600 5596 5588 5584 5580 5577 5573 5570 5567 5563 5560 5557 5556 5553 5551 5550 5549 5549 5550 5553 5558 5564 5574 5579 5591 5602 5607 5618 5620 5632 5643 5653 5663 5673 5680 5686